TimeCDT,TemperatureF,Dew PointF,Humidity,Sea Level PressureIn,VisibilityMPH,Wind Direction,Wind SpeedMPH,Gust SpeedMPH,PrecipitationIn,Events,Conditions,WindDirDegrees,DateUTC
12:15 AM,26.6,14.0,59,30.28,10.0,Calm,Calm,-,N/A,,Clear,0,2013-04-02 05:15:00
12:35 AM,26.6,14.0,59,30.27,10.0,North,3.5,-,N/A,,Clear,10,2013-04-02 05:35:00
12:55 AM,26.6,10.4,51,30.28,10.0,NNE,4.6,-,N/A,,Clear,20,2013-04-02 05:55:00
1:15 AM,24.8,12.2,59,30.28,10.0,Calm,Calm,-,N/A,,Clear,0,2013-04-02 06:15:00
1:35 AM,23.0,14.0,68,30.28,10.0,Calm,Calm,-,N/A,,Clear,0,2013-04-02 06:35:00
1:55 AM,24.8,12.2,59,30.28,10.0,ENE,3.5,-,N/A,,Clear,70,2013-04-02 06:55:00
2:15 AM,24.8,14.0,64,30.27,10.0,Calm,Calm,-,N/A,,Clear,0,2013-04-02 07:15:00
2:35 AM,24.8,14.0,64,30.28,10.0,Calm,Calm,-,N/A,,Clear,0,2013-04-02 07:35:00
2:55 AM,24.8,12.2,59,30.27,10.0,Calm,Calm,-,N/A,,Clear,0,2013-04-02 07:55:00
3:15 AM,23.0,12.2,63,30.27,10.0,Calm,Calm,-,N/A,,Clear,0,2013-04-02 08:15:00
3:35 AM,24.8,14.0,64,30.27,10.0,Calm,Calm,-,N/A,,Clear,0,2013-04-02 08:35:00
3:55 AM,24.8,12.2,59,30.27,10.0,Calm,Calm,-,N/A,,Clear,0,2013-04-02 08:55:00
4:15 AM,23.0,14.0,68,30.27,10.0,Calm,Calm,-,N/A,,Clear,0,2013-04-02 09:15:00
4:35 AM,23.0,14.0,68,30.27,10.0,Calm,Calm,-,N/A,,Clear,0,2013-04-02 09:35:00
4:55 AM,23.0,14.0,68,30.27,10.0,Calm,Calm,-,N/A,,Clear,0,2013-04-02 09:55:00
5:15 AM,23.0,14.0,68,30.27,10.0,Calm,Calm,-,N/A,,Clear,0,2013-04-02 10:15:00
5:35 AM,21.2,14.0,74,30.27,10.0,Calm,Calm,-,N/A,,Clear,0,2013-04-02 10:35:00
5:55 AM,21.2,12.2,68,30.27,10.0,Calm,Calm,-,N/A,,Clear,0,2013-04-02 10:55:00
6:15 AM,21.2,14.0,74,30.27,10.0,Calm,Calm,-,N/A,,Clear,0,2013-04-02 11:15:00
6:35 AM,19.4,14.0,80,30.28,10.0,Calm,Calm,-,N/A,,Scattered Clouds,0,2013-04-02 11:35:00
6:55 AM,19.4,15.8,86,30.28,10.0,Calm,Calm,-,N/A,,Mostly Cloudy,0,2013-04-02 11:55:00
7:15 AM,21.2,19.4,93,30.28,10.0,Calm,Calm,-,N/A,,Overcast,0,2013-04-02 12:15:00
7:35 AM,21.2,17.6,86,30.28,10.0,Calm,Calm,-,N/A,,Overcast,0,2013-04-02 12:35:00
7:55 AM,21.2,17.6,86,30.28,10.0,ENE,3.5,-,N/A,,Overcast,70,2013-04-02 12:55:00
8:15 AM,23.0,17.6,80,30.28,10.0,Calm,Calm,-,N/A,,Overcast,0,2013-04-02 13:15:00
8:35 AM,24.8,19.4,80,30.28,10.0,East,3.5,-,N/A,,Overcast,90,2013-04-02 13:35:00
8:55 AM,24.8,19.4,80,30.28,10.0,Calm,Calm,-,N/A,,Overcast,0,2013-04-02 13:55:00
9:35 AM,28.4,23.0,80,30.28,10.0,ENE,3.5,-,N/A,,Overcast,60,2013-04-02 14:35:00
9:55 AM,30.2,23.0,75,30.28,10.0,Calm,Calm,-,N/A,,Overcast,0,2013-04-02 14:55:00
10:15 AM,33.8,23.0,65,30.28,10.0,Calm,Calm,-,N/A,,Overcast,0,2013-04-02 15:15:00
10:35 AM,33.8,24.8,70,30.28,10.0,SE,5.8,-,N/A,,Overcast,140,2013-04-02 15:35:00
10:55 AM,37.4,24.8,60,30.28,10.0,ESE,4.6,-,N/A,,Overcast,110,2013-04-02 15:55:00
11:15 AM,37.4,23.0,56,30.28,10.0,SE,4.6,-,N/A,,Overcast,140,2013-04-02 16:15:00
11:35 AM,39.2,23.0,52,30.28,10.0,East,4.6,-,N/A,,Overcast,100,2013-04-02 16:35:00
11:55 AM,42.8,21.2,42,30.28,10.0,South,8.1,-,N/A,,Overcast,180,2013-04-02 16:55:00
12:15 PM,42.8,21.2,42,30.28,10.0,South,9.2,-,N/A,,Overcast,180,2013-04-02 17:15:00
12:35 PM,42.8,21.2,42,30.27,10.0,SE,10.4,-,N/A,,Overcast,130,2013-04-02 17:35:00
12:55 PM,44.6,21.2,39,30.27,10.0,South,11.5,-,N/A,,Overcast,170,2013-04-02 17:55:00
1:15 PM,44.6,21.2,39,30.26,10.0,East,8.1,-,N/A,,Overcast,90,2013-04-02 18:15:00
1:35 PM,46.4,21.2,37,30.26,10.0,SSE,8.1,-,N/A,,Scattered Clouds,160,2013-04-02 18:35:00
1:55 PM,48.2,23.0,37,30.25,10.0,SE,8.1,-,N/A,,Clear,140,2013-04-02 18:55:00
2:15 PM,46.4,21.2,37,30.25,10.0,ESE,8.1,-,N/A,,Partly Cloudy,110,2013-04-02 19:15:00
2:35 PM,46.4,21.2,37,30.24,10.0,SW,3.5,-,N/A,,Mostly Cloudy,230,2013-04-02 19:35:00
2:55 PM,48.2,21.2,34,30.24,10.0,Calm,Calm,-,N/A,,Overcast,0,2013-04-02 19:55:00
3:15 PM,48.2,21.2,34,30.23,10.0,SSE,6.9,-,N/A,,Overcast,160,2013-04-02 20:15:00
3:35 PM,48.2,21.2,34,30.23,10.0,East,4.6,-,N/A,,Overcast,90,2013-04-02 20:35:00
3:55 PM,48.2,21.2,34,30.23,10.0,ESE,6.9,-,N/A,,Overcast,110,2013-04-02 20:55:00
4:15 PM,48.2,21.2,34,30.22,10.0,SE,6.9,-,N/A,,Overcast,130,2013-04-02 21:15:00
4:35 PM,48.2,21.2,34,30.22,10.0,ESE,6.9,-,N/A,,Overcast,120,2013-04-02 21:35:00
4:55 PM,48.2,23.0,37,30.22,10.0,East,10.4,-,N/A,,Mostly Cloudy,90,2013-04-02 21:55:00
5:15 PM,48.2,21.2,34,30.21,10.0,East,6.9,-,N/A,,Mostly Cloudy,80,2013-04-02 22:15:00
5:35 PM,48.2,21.2,34,30.21,10.0,East,8.1,-,N/A,,Scattered Clouds,80,2013-04-02 22:35:00
5:55 PM,50.0,23.0,35,30.21,10.0,East,9.2,-,N/A,,Mostly Cloudy,100,2013-04-02 22:55:00
6:15 PM,48.2,21.2,34,30.21,10.0,East,9.2,-,N/A,,Mostly Cloudy,90,2013-04-02 23:15:00
6:35 PM,48.2,23.0,37,30.22,10.0,ENE,11.5,-,N/A,,Scattered Clouds,70,2013-04-02 23:35:00
6:55 PM,48.2,23.0,37,30.22,10.0,East,11.5,16.1,N/A,,Partly Cloudy,80,2013-04-02 23:55:00
7:15 PM,48.2,21.2,34,30.22,10.0,East,9.2,-,N/A,,Clear,80,2013-04-03 00:15:00
7:35 PM,46.4,21.2,37,30.22,10.0,East,9.2,-,N/A,,Clear,80,2013-04-03 00:35:00
7:55 PM,44.6,23.0,43,30.22,10.0,ENE,9.2,-,N/A,,Clear,70,2013-04-03 00:55:00
8:15 PM,42.8,23.0,46,30.22,10.0,East,8.1,-,N/A,,Clear,80,2013-04-03 01:15:00
8:35 PM,42.8,21.2,42,30.22,10.0,East,6.9,-,N/A,,Clear,90,2013-04-03 01:35:00
8:55 PM,42.8,21.2,42,30.22,10.0,East,6.9,-,N/A,,Clear,90,2013-04-03 01:55:00
9:15 PM,41.0,21.2,45,30.23,10.0,East,5.8,-,N/A,,Clear,100,2013-04-03 02:15:00
9:35 PM,39.2,21.2,49,30.24,10.0,East,4.6,-,N/A,,Clear,80,2013-04-03 02:35:00
9:55 PM,37.4,21.2,52,30.25,10.0,NE,10.4,-,N/A,,Clear,50,2013-04-03 02:55:00
10:15 PM,35.6,21.2,56,30.26,10.0,ENE,9.2,-,N/A,,Clear,60,2013-04-03 03:15:00
10:35 PM,37.4,24.8,60,30.26,10.0,East,10.4,-,N/A,,Clear,80,2013-04-03 03:35:00
10:55 PM,35.6,24.8,65,30.26,10.0,East,9.2,-,N/A,,Scattered Clouds,80,2013-04-03 03:55:00
11:15 PM,35.6,24.8,65,30.26,10.0,East,10.4,-,N/A,,Scattered Clouds,80,2013-04-03 04:15:00
11:35 PM,35.6,24.8,65,30.27,10.0,East,9.2,-,N/A,,Clear,80,2013-04-03 04:35:00
11:55 PM,33.8,24.8,70,30.27,10.0,ENE,8.1,-,N/A,,Clear,60,2013-04-03 04:55:00